Tracking 31027 objects as of 19-Jul-2025
HD Live streaming from Space Station
objects crossing your sky now

ASTRON

Track ASTRON now!
ASTRON is classified as:


NORAD ID: 13901
Int'l Code: 1983-020A
Perigee: 39,986.4 km
Apogee: 164,318.4 km
Inclination: 79.1 °
Period: 5,929.9 minutes
Semi major axis: 108523 km
RCS: 7.9432 m2 (large)
Launch date: March 23, 1983
Source: Commonwealth of Independent States (former USSR) (CIS)
Launch site: TYURATAM MISSILE AND SPACE COMPLEX (TTMTR)
Your satellite tracking list
COSMOS 1656
Track 1 satellite(s)




NASA's NSSDC Master Catalog

Two Line Element Set (TLE):
1 13901U 83020A   25202.43992646 -.00000555  00000-0  00000-0 0  9997
2 13901  79.0659  61.6003 5728351  43.4242   1.2812  0.24283876 10340
Source of the keplerian elements: AFSPC